VK2TRB Weather Reports


Display with metric or nautical units.
time (UTC)temp
F
wind
direction
speed
MPH
gust
MPH
rain 1hr
in
rain 24hr
in
rain mn
in
humidity
%
barometer
mb
20260504050502 66 285 4.0 12.0 0.03 0.37 0.08 55 1010.6
20260504045001 65 270 2.0 12.0 0.03 0.37 0.08 56 1010.4
20260504043501 66 347 3.0 12.0 0.03 0.37 0.08 54 1010.4
20260504042002 66 340 2.0 12.0 0.03 0.37 0.08 55 1010.5
20260504040502 66 236 5.0 12.0 0.03 0.37 0.08 55 1010.4
20260504035001 65 291 3.0 12.0 0.03 0.37 0.08 57 1010.3
20260504033501 65 259 8.0 12.0 0.03 0.37 0.08 58 1010.4
20260504032002 65 289 5.0 12.0 0.03 0.37 0.08 60 1010.6
20260504030502 64 317 1.0 12.0 0.03 0.37 0.08 62 1010.8
20260504025001 63 294 7.0 12.0 0.03 0.37 0.08 64 1011.0
20260504023431 63 265 4.0 12.0 0.03 0.37 0.08 64 1011.1
20260504021703 63 251 6.0 12.0 0.03 0.37 0.08 69 1011.2
20260504020203 63 5 1.0 12.0 0.03 0.37 0.08 73 1011.5
20260504014704 61 315 1.0 12.0 0.03 0.38 0.08 76 1011.6
20260504013204 62 334 4.0 12.0 0.03 0.38 0.08 77 1011.9
20260504011703 62 291 1.0 12.0 0.03 0.38 0.08 76 1012.0
20260504010204 61 342 3.0 12.0 0.03 0.38 0.08 80 1012.1
20260504004703 61 290 2.0 12.0 0.03 0.38 0.08 84 1012.1
20260504003204 59 12 0.0 12.0 0.03 0.38 0.08 87 1012.2
20260503110338 64 24 3.0 5.0 0.07 0.12 0.07 94 1011.8
20260503090338 65 323 1.0 5.0 0.07 0.12 0.07 92 1011.6
20260503080339 65 335 0.0 5.0 0.07 0.12 0.07 91 1011.5
20260503071839 66 296 0.0 5.0 0.07 0.12 0.07 88 1011.3
20260503070338 66 296 0.0 5.0 0.07 0.12 0.07 87 1010.7